Location: Faicchio
(41.2833°N, 14.4833°E)
Time: 06:58:57
(UTC+00:00)

AQUA - Pass Details

Date: 15 June 2025
Orbit: 688 x 689 km, 98.4° (Epoch: 17 July)

Event Time Altitude Azimuth Distance (km) Brightness Sun altitude
Rises 02:15:50 0° 11° (N) 3,067 8.2 -11.4°
Reaches altitude 10° 02:18:05 10° 10° (N) 2,147 7.2 -11.1°
Maximum altitude 02:22:46 75° 286° (WNW) 715 3.8 -10.5°
Drops below altitude 10° 02:27:25 10° 201° (SSW) 2,131 5.8 -9.9°
Enters shadow 02:27:27 10° 201° (SSW) 2,146 5.8 -9.9°
